Location: Vihti�l�
(61.3833°N, 23.0667°E)
Time: 03:35:34
(UTC+00:00)

NOSS 2-2 (D) - Pass Details

Date: 29 November 2020
Orbit: 464 x 1744 km, 63.3° (Epoch: 16 January)

Event Time Altitude Azimuth Distance (km) Brightness Sun altitude
Exits shadow 03:46:58 73° 291° (WNW) 625 3.3 -22.3°
Maximum altitude 03:47:17 80° 343° (NNW) 618 3.4 -22.2°
Drops below altitude 10° 03:52:17 10° 72° (ENE) 2,268 7.4 -21.6°
Sets 03:55:04 0° 74° (ENE) 3,400 8.5 -21.3°
